Location: Unspecified
(33.2407°S, 0.0000°E)
Time: 13:58:17
(UTC+00:00)

RS-15 - Visible Passes

Search period start: 23 July 2019 00:00
Search period end: 02 August 2019 00:00
Orbit: 1899 x 2145 km, 64.8° (Epoch: 22 July)

Date Brightness Start Highest point End Pass type
(mag) Time Alt. Az. Time Alt. Az. Time Alt. Az.
23 Jul 10.0 01:59:02 11° S 01:59:02 11° S 02:02:24 10° SSE visible
23 Jul 9.6 04:09:09 10° SSW 04:18:34 24° SE 04:27:48 10° E visible
23 Jul 8.4 06:20:53 10° SSW 06:33:19 81° ESE 06:45:16 10° NNE visible
23 Jul 9.2 18:33:04 10° NE 18:36:46 14° ENE 18:36:46 14° ENE visible
23 Jul 8.4 20:37:20 10° NNW 20:44:37 48° NNW 20:44:37 48° NNW visible
23 Jul10.123:16:26SSE23:16:26SSE22:52:28Wvisible
24 Jul 10.1 01:24:10 11° S 01:24:10 11° S 01:25:13 10° SSE visible
24 Jul 9.8 03:33:17 10° SSW 03:41:29 19° SSE 03:49:35 10° ESE visible
24 Jul 8.6 05:44:52 10° SSW 05:57:08 64° ESE 06:08:58 10° NE visible
24 Jul 8.1 20:01:44 10° N 20:11:01 56° NE 20:11:01 56° NE visible
24 Jul 9.6 22:15:20 10° WNW 22:18:53 21° W 22:18:53 21° W visible
25 Jul 9.9 02:57:22 10° S 03:04:12 16° SSE 03:10:59 10° ESE visible
25 Jul 8.9 05:08:54 10° SSW 05:20:49 50° SE 05:32:19 10° NE visible
25 Jul 8.2 19:26:31 10° N 19:37:11 46° ENE 19:37:31 46° ENE visible
25 Jul 8.9 21:38:21 10° NW 21:45:23 38° W 21:45:23 38° W visible
26 Jul 10.0 02:22:12 11° S 02:26:44 13° SSE 02:32:06 10° SE visible
26 Jul 9.1 04:33:00 10° SSW 04:44:21 40° SE 04:55:20 10° ENE visible
26 Jul 8.5 18:51:46 10° NNE 19:01:31 34° ENE 19:04:06 31° E visible
26 Jul 8.3 21:01:42 10° NW 21:11:59 60° W 21:11:59 60° W visible
26 Jul10.223:39:38SSE23:39:38SSE23:19:51WSWvisible
27 Jul 10.0 01:47:22 12° S 01:49:06 12° S 01:53:12 10° SSE visible
27 Jul 9.4 03:57:07 10° SSW 04:07:42 31° SE 04:17:59 10° ENE visible
27 Jul 8.2 06:09:08 10° SSW 06:21:28 78° WNW 06:33:18 10° NNE visible
27 Jul 8.8 18:17:38 10° NNE 18:25:58 24° E 18:30:46 18° ESE visible
27 Jul 8.0 20:25:23 10° NNW 20:36:58 79° WSW 20:38:38 69° S visible
27 Jul 9.7 22:42:53 10° W 23:04:48 - SSE 22:46:32 18° WSW visible
28 Jul 10.1 01:12:33 11° S 01:12:33 11° S 01:14:48 10° SSE visible
28 Jul 9.6 03:21:16 10° SSW 03:30:50 25° SE 03:40:13 10° E visible
28 Jul 8.2 05:33:01 10° SSW 05:45:27 83° ESE 05:57:24 10° NNE visible
28 Jul 9.2 17:44:34 10° NE 17:50:31 16° E 17:56:35 10° ESE visible
28 Jul 7.9 19:49:24 10° NNW 20:00:56 82° ENE 20:05:23 47° SE visible
28 Jul 9.3 22:05:04 10° W 22:13:16 28° SW 22:13:16 28° SW visible
29 Jul 9.8 02:45:30 10° SSW 02:53:48 20° SSE 03:02:04 10° ESE visible
29 Jul 8.5 04:56:59 10° SSW 05:09:18 66° ESE 05:21:09 10° NE visible
29 Jul 8.0 19:13:45 10° N 19:25:02 64° ENE 19:32:12 28° SE visible
29 Jul 9.0 21:27:38 10° WNW 21:38:10 37° SW 21:40:05 35° SSW visible
30 Jul10.200:02:59SSE00:02:59SSE23:47:59SWvisible
30 Jul 9.9 02:10:44 12° S 02:16:32 16° SSE 02:23:31 10° ESE visible
30 Jul 8.7 04:21:02 10° SSW 04:33:01 52° SE 04:44:33 10° NE visible
30 Jul 8.2 18:38:29 10° N 18:49:15 48° ENE 18:59:02 15° SE visible
30 Jul 8.7 20:50:35 10° WNW 21:01:39 47° SW 21:06:56 32° S visible
30 Jul 10.0 23:12:14 10° SW 23:28:16 - SSE 23:14:50 13° SW visible
31 Jul 10.0 01:36:01 13° S 01:39:05 14° SSE 01:44:41 10° SE visible
31 Jul 9.0 03:45:07 10° SSW 03:56:33 41° SE 04:07:38 10° ENE visible
31 Jul 8.2 05:57:34 10° SW 06:09:26 58° WNW 06:20:54 10° N visible
31 Jul 8.5 18:03:39 10° NNE 18:13:36 35° ENE 18:23:54 10° SE visible
31 Jul 8.4 20:13:53 10° NW 20:25:18 60° SW 20:33:48 23° SSE visible
31 Jul 9.7 22:33:35 10° WSW 22:41:10 18° SSW 22:41:42 18° SSW visible
01 Aug 10.0 01:01:22 12° S 01:01:29 12° S 01:05:45 10° SSE visible
01 Aug 9.3 03:09:14 10° SSW 03:19:56 32° SE 03:30:19 10° ENE visible
01 Aug 8.1 05:21:18 10° SSW 05:33:34 75° WNW 05:45:23 10° NNE visible
01 Aug 8.9 17:29:25 10° NNE 17:38:01 25° E 17:46:53 10° SE visible
01 Aug 8.1 19:37:32 10° NW 19:49:07 76° WSW 20:00:38 12° SSE visible
01 Aug 9.6 21:55:18 10° W 22:04:02 23° SW 22:08:32 19° S visible
